Train No Train Name From To Distance Stops avg_speed (km/hr)
13008 Udyan Abha Toofan Express Shri Ganganagar Howrah Junction 1980 105 43
A Train's "Departure" Station, "Arrival" Station and "Distance" may vary. Although we have verified some of this data from enquiry.indianrail.gov.in
Train No Start Date (yyyy-mm-dd) Status Delay Time Source
13008 2017-01-01 Late 32 hours 05 minutes Source
13008 2017-01-02 Late 26 hours 28 minutes Source
13008 2017-01-04 Late 30 hours 45 minutes Source
13008 2017-01-08 Late 22 hours 34 minutes Source
13008 2017-01-09 Late 18 hours 05 minutes Source
13008 2017-01-10 Late 19 hours 00 minutes Source
13008 2017-01-11 Late 16 hours 50 minutes Source
13008 2017-01-13 Late 16 hours 01 minutes Source
13008 2017-01-22 Late 20 hours 12 minutes Source
13008 2017-01-23 Late 18 hours 50 minutes Source
13008 2017-01-24 Late 17 hours 35 minutes Source
13008 2017-01-25 Late 17 hours 50 minutes Source
13008 2017-01-28 Late 16 hours 35 minutes Source
13008 2017-01-29 Late 22 hours 15 minutes Source
13008 2017-01-30 Late 16 hours 45 minutes Source
13008 2017-01-31 Late 17 hours 40 minutes Source
13008 2017-02-05 Late 15 hours 50 minutes Source
13008 2017-02-09 Late 21 hours 07 minutes Source
13008 2017-02-10 Late 21 hours 35 minutes Source
13008 2017-02-11 Late 19 hours 00 minutes Source
13008 2017-02-13 Late 15 hours 50 minutes Source
13008 2017-02-18 Late 16 hours 40 minutes Source
13008 2017-02-21 Late 18 hours 50 minutes Source
13008 2017-02-22 Late 17 hours 34 minutes Source
13008 2017-02-25 Late 18 hours 05 minutes Source
13008 2017-02-26 Late 19 hours 36 minutes Source
13008 2017-03-08 Late 18 hours 05 minutes Source
13008 2017-03-09 Late 19 hours 18 minutes Source
13008 2017-03-11 Late 15 hours 43 minutes Source
13008 2017-03-13 Late 20 hours 10 minutes Source
13008 2017-03-29 Late 16 hours 02 minutes Source
13008 2017-03-30 Late 16 hours 45 minutes Source
Page 1 of 1, showing 32 records out of 32 total